{"data":{"norad_id":58264,"intl_designator":"2023-174J","name":"BRO-11","alt_names":[],"object_type":"PAYLOAD","status":"ACTIVE","operator":null,"country":"FR","launch_date":"2023-11-11","launch_site_code":"AFWTR","launch_vehicle":null,"mission":null,"orbit_class":"UNKNOWN","rcs_meters":null,"size_class":null,"mass_kg":null,"dimensions":null,"purposes":[],"wikipedia_slug":null,"has_3d_model":false,"image_url":null,"decayed_at":null,"tle_current":{"epoch":"2026-09-21T22:08:36.914208Z","epoch_age_seconds":116363,"freshness":"FRESH","line1":"1 58264U 23174J   26264.92264947  .00002995  00000+0  11199-3 0  9993","line2":"2 58264  97.3836 340.8880 0009136 218.0593 142.0002 15.28085655159527","mean_motion":15.28085655,"eccentricity":0.0009136,"inclination_deg":97.3836,"raan_deg":340.888,"arg_perigee_deg":218.0593,"mean_anomaly_deg":142.0002,"bstar":0.00011199,"rev_number":15952,"period_min":94.235555139741,"perigee_km":475.2684038975,"apogee_km":487.80239730788,"semimajor_km":6859.6724006027,"source":"CELESTRAK","updated_at":"2026-09-22T09:00:26.575818Z"}}}